﻿測定場所 (Monitoring sites),日付 (Measurement date),時間 (Measurement time),線量率 最大値 (max) μGy/h,線量率 最小値 (min) μGy/h,線量率 平均値 (average) μGy/h,
江戸川 (Edogawa),2020-06-14,23:01～24:00,0.0555,0.0486,0.0520,
江戸川 (Edogawa),2020-06-14,22:01～23:00,0.0538,0.0444,0.0498,
江戸川 (Edogawa),2020-06-14,21:01～22:00,0.0507,0.0403,0.0446,
江戸川 (Edogawa),2020-06-14,20:01～21:00,0.0472,0.0402,0.0431,
江戸川 (Edogawa),2020-06-14,19:01～20:00,0.0457,0.0399,0.0427,
江戸川 (Edogawa),2020-06-14,18:01～19:00,0.0457,0.0399,0.0424,
江戸川 (Edogawa),2020-06-14,17:01～18:00,0.0466,0.0403,0.0433,
江戸川 (Edogawa),2020-06-14,16:01～17:00,0.0495,0.0412,0.0448,
江戸川 (Edogawa),2020-06-14,15:01～16:00,0.0608,0.0453,0.0516,
江戸川 (Edogawa),2020-06-14,14:01～15:00,0.0623,0.0546,0.0587,
江戸川 (Edogawa),2020-06-14,13:01～14:00,0.0598,0.0457,0.0527,
江戸川 (Edogawa),2020-06-14,12:01～13:00,0.0521,0.0438,0.0479,
江戸川 (Edogawa),2020-06-14,11:01～12:00,0.0524,0.0411,0.0465,
江戸川 (Edogawa),2020-06-14,10:01～11:00,0.0465,0.0402,0.0430,
江戸川 (Edogawa),2020-06-14,09:01～10:00,0.0467,0.0400,0.0430,
江戸川 (Edogawa),2020-06-14,08:01～09:00,0.0474,0.0399,0.0440,
江戸川 (Edogawa),2020-06-14,07:01～08:00,0.0505,0.0430,0.0460,
江戸川 (Edogawa),2020-06-14,06:01～07:00,0.0505,0.0436,0.0468,
江戸川 (Edogawa),2020-06-14,05:01～06:00,0.0500,0.0426,0.0466,
江戸川 (Edogawa),2020-06-14,04:01～05:00,0.0499,0.0417,0.0463,
江戸川 (Edogawa),2020-06-14,03:01～04:00,0.0494,0.0411,0.0447,
江戸川 (Edogawa),2020-06-14,02:01～03:00,0.0488,0.0394,0.0433,
江戸川 (Edogawa),2020-06-14,01:01～02:00,0.0465,0.0395,0.0430,
江戸川 (Edogawa),2020-06-14,00:01～01:00,0.0466,0.0400,0.0429,
江戸川 (Edogawa),2020-06-13,23:01～24:00,0.0460,0.0406,0.0432,
江戸川 (Edogawa),2020-06-13,22:01～23:00,0.0457,0.0405,0.0430,
江戸川 (Edogawa),2020-06-13,21:01～22:00,0.0487,0.0405,0.0446,
江戸川 (Edogawa),2020-06-13,20:01～21:00,0.0486,0.0429,0.0458,
江戸川 (Edogawa),2020-06-13,19:01～20:00,0.0519,0.0432,0.0465,
江戸川 (Edogawa),2020-06-13,18:01～19:00,0.0558,0.0458,0.0510,
江戸川 (Edogawa),2020-06-13,17:01～18:00,0.0582,0.0493,0.0528,
江戸川 (Edogawa),2020-06-13,16:01～17:00,0.0687,0.0535,0.0593,
江戸川 (Edogawa),2020-06-13,15:01～16:00,0.0738,0.0612,0.0682,
江戸川 (Edogawa),2020-06-13,14:01～15:00,0.0683,0.0604,0.0641,
江戸川 (Edogawa),2020-06-13,13:01～14:00,0.0680,0.0589,0.0634,
江戸川 (Edogawa),2020-06-13,12:01～13:00,0.0764,0.0656,0.0709,
江戸川 (Edogawa),2020-06-13,11:01～12:00,0.0726,0.0462,0.0577,
江戸川 (Edogawa),2020-06-13,10:01～11:00,0.0515,0.0457,0.0488,
江戸川 (Edogawa),2020-06-13,09:01～10:00,0.0540,0.0460,0.0502,
江戸川 (Edogawa),2020-06-13,08:01～09:00,0.0543,0.0454,0.0500,
江戸川 (Edogawa),2020-06-13,07:01～08:00,0.0497,0.0435,0.0464,
江戸川 (Edogawa),2020-06-13,06:01～07:00,0.0486,0.0426,0.0450,
江戸川 (Edogawa),2020-06-13,05:01～06:00,0.0473,0.0409,0.0434,
江戸川 (Edogawa),2020-06-13,04:01～05:00,0.0475,0.0411,0.0436,
江戸川 (Edogawa),2020-06-13,03:01～04:00,0.0472,0.0407,0.0436,
江戸川 (Edogawa),2020-06-13,02:01～03:00,0.0480,0.0401,0.0444,
江戸川 (Edogawa),2020-06-13,01:01～02:00,0.0504,0.0441,0.0475,
江戸川 (Edogawa),2020-06-13,00:01～01:00,0.0561,0.0488,0.0526,
江戸川 (Edogawa),2020-06-12,23:01～24:00,0.0666,0.0514,0.0578,
江戸川 (Edogawa),2020-06-12,22:01～23:00,0.0678,0.0586,0.0629,
江戸川 (Edogawa),2020-06-12,21:01～22:00,0.0618,0.0426,0.0511,
江戸川 (Edogawa),2020-06-12,20:01～21:00,0.0483,0.0419,0.0443,
江戸川 (Edogawa),2020-06-12,19:01～20:00,0.0469,0.0407,0.0441,
江戸川 (Edogawa),2020-06-12,18:01～19:00,0.0472,0.0408,0.0438,
江戸川 (Edogawa),2020-06-12,17:01～18:00,0.0485,0.0403,0.0441,
江戸川 (Edogawa),2020-06-12,16:01～17:00,0.0467,0.0418,0.0440,
江戸川 (Edogawa),2020-06-12,15:01～16:00,0.0476,0.0417,0.0441,
江戸川 (Edogawa),2020-06-12,14:01～15:00,0.0471,0.0409,0.0445,
江戸川 (Edogawa),2020-06-12,13:01～14:00,0.0479,0.0420,0.0444,
江戸川 (Edogawa),2020-06-12,12:01～13:00,0.0477,0.0416,0.0443,
江戸川 (Edogawa),2020-06-12,11:01～12:00,0.0476,0.0417,0.0444,
江戸川 (Edogawa),2020-06-12,10:01～11:00,0.0471,0.0408,0.0441,
江戸川 (Edogawa),2020-06-12,09:01～10:00,0.0475,0.0405,0.0440,
江戸川 (Edogawa),2020-06-12,08:01～09:00,0.0471,0.0416,0.0441,
江戸川 (Edogawa),2020-06-12,07:01～08:00,0.0467,0.0403,0.0438,
江戸川 (Edogawa),2020-06-12,06:01～07:00,0.0473,0.0407,0.0434,
江戸川 (Edogawa),2020-06-12,05:01～06:00,0.0472,0.0404,0.0434,
江戸川 (Edogawa),2020-06-12,04:01～05:00,0.0464,0.0402,0.0433,
江戸川 (Edogawa),2020-06-12,03:01～04:00,0.0476,0.0402,0.0437,
江戸川 (Edogawa),2020-06-12,02:01～03:00,0.0470,0.0403,0.0440,
江戸川 (Edogawa),2020-06-12,01:01～02:00,0.0465,0.0411,0.0437,
江戸川 (Edogawa),2020-06-12,00:01～01:00,0.0467,0.0393,0.0432,
江戸川 (Edogawa),2020-06-11,23:01～24:00,0.0476,0.0408,0.0440,
江戸川 (Edogawa),2020-06-11,22:01～23:00,0.0502,0.0423,0.0459,
江戸川 (Edogawa),2020-06-11,21:01～22:00,0.0504,0.0442,0.0473,
江戸川 (Edogawa),2020-06-11,20:01～21:00,0.0503,0.0440,0.0468,
江戸川 (Edogawa),2020-06-11,19:01～20:00,0.0498,0.0429,0.0462,
江戸川 (Edogawa),2020-06-11,18:01～19:00,0.0489,0.0429,0.0460,
江戸川 (Edogawa),2020-06-11,17:01～18:00,0.0488,0.0428,0.0461,
江戸川 (Edogawa),2020-06-11,16:01～17:00,0.0505,0.0437,0.0467,
江戸川 (Edogawa),2020-06-11,15:01～16:00,0.0504,0.0440,0.0475,
江戸川 (Edogawa),2020-06-11,14:01～15:00,0.0495,0.0436,0.0461,
江戸川 (Edogawa),2020-06-11,13:01～14:00,0.0480,0.0405,0.0442,
江戸川 (Edogawa),2020-06-11,12:01～13:00,0.0486,0.0416,0.0451,
江戸川 (Edogawa),2020-06-11,11:01～12:00,0.0477,0.0413,0.0453,
江戸川 (Edogawa),2020-06-11,10:01～11:00,0.0480,0.0425,0.0453,
江戸川 (Edogawa),2020-06-11,09:01～10:00,0.0483,0.0424,0.0450,
江戸川 (Edogawa),2020-06-11,08:01～09:00,0.0483,0.0430,0.0454,
江戸川 (Edogawa),2020-06-11,07:01～08:00,0.0483,0.0407,0.0451,
江戸川 (Edogawa),2020-06-11,06:01～07:00,0.0496,0.0421,0.0451,
江戸川 (Edogawa),2020-06-11,05:01～06:00,0.0486,0.0425,0.0451,
江戸川 (Edogawa),2020-06-11,04:01～05:00,0.0490,0.0428,0.0454,
江戸川 (Edogawa),2020-06-11,03:01～04:00,0.0498,0.0440,0.0457,
江戸川 (Edogawa),2020-06-11,02:01～03:00,0.0483,0.0424,0.0454,
江戸川 (Edogawa),2020-06-11,01:01～02:00,0.0479,0.0430,0.0452,
江戸川 (Edogawa),2020-06-11,00:01～01:00,0.0485,0.0421,0.0457,
江戸川 (Edogawa),2020-06-10,23:01～24:00,0.0502,0.0403,0.0456,
江戸川 (Edogawa),2020-06-10,22:01～23:00,0.0483,0.0407,0.0454,
江戸川 (Edogawa),2020-06-10,21:01～22:00,0.0491,0.0425,0.0454,
江戸川 (Edogawa),2020-06-10,20:01～21:00,0.0490,0.0432,0.0456,
江戸川 (Edogawa),2020-06-10,19:01～20:00,0.0489,0.0428,0.0454,
江戸川 (Edogawa),2020-06-10,18:01～19:00,0.0493,0.0415,0.0451,
江戸川 (Edogawa),2020-06-10,17:01～18:00,0.0483,0.0427,0.0456,
江戸川 (Edogawa),2020-06-10,16:01～17:00,0.0490,0.0425,0.0453,
江戸川 (Edogawa),2020-06-10,15:01～16:00,0.0481,0.0427,0.0451,
江戸川 (Edogawa),2020-06-10,14:01～15:00,0.0485,0.0430,0.0455,
江戸川 (Edogawa),2020-06-10,13:01～14:00,0.0477,0.0417,0.0454,
江戸川 (Edogawa),2020-06-10,12:01～13:00,0.0489,0.0428,0.0456,
江戸川 (Edogawa),2020-06-10,11:01～12:00,0.0484,0.0408,0.0452,
江戸川 (Edogawa),2020-06-10,10:01～11:00,0.0476,0.0417,0.0451,
江戸川 (Edogawa),2020-06-10,09:01～10:00,0.0482,0.0413,0.0453,
江戸川 (Edogawa),2020-06-10,08:01～09:00,0.0480,0.0428,0.0455,
江戸川 (Edogawa),2020-06-10,07:01～08:00,0.0498,0.0419,0.0454,
江戸川 (Edogawa),2020-06-10,06:01～07:00,0.0487,0.0419,0.0454,
江戸川 (Edogawa),2020-06-10,05:01～06:00,0.0497,0.0419,0.0452,
江戸川 (Edogawa),2020-06-10,04:01～05:00,0.0481,0.0426,0.0452,
江戸川 (Edogawa),2020-06-10,03:01～04:00,0.0486,0.0418,0.0454,
江戸川 (Edogawa),2020-06-10,02:01～03:00,0.0477,0.0434,0.0453,
江戸川 (Edogawa),2020-06-10,01:01～02:00,0.0497,0.0418,0.0457,
江戸川 (Edogawa),2020-06-10,00:01～01:00,0.0505,0.0424,0.0455,
江戸川 (Edogawa),2020-06-09,23:01～24:00,0.0479,0.0422,0.0453,
江戸川 (Edogawa),2020-06-09,22:01～23:00,0.0504,0.0417,0.0455,
江戸川 (Edogawa),2020-06-09,21:01～22:00,0.0487,0.0422,0.0453,
江戸川 (Edogawa),2020-06-09,20:01～21:00,0.0482,0.0430,0.0455,
江戸川 (Edogawa),2020-06-09,19:01～20:00,0.0477,0.0419,0.0452,
江戸川 (Edogawa),2020-06-09,18:01～19:00,0.0497,0.0420,0.0451,
江戸川 (Edogawa),2020-06-09,17:01～18:00,0.0487,0.0431,0.0457,
江戸川 (Edogawa),2020-06-09,16:01～17:00,0.0489,0.0420,0.0453,
江戸川 (Edogawa),2020-06-09,15:01～16:00,0.0491,0.0421,0.0456,
江戸川 (Edogawa),2020-06-09,14:01～15:00,0.0487,0.0422,0.0455,
江戸川 (Edogawa),2020-06-09,13:01～14:00,0.0493,0.0420,0.0455,
江戸川 (Edogawa),2020-06-09,12:01～13:00,0.0479,0.0429,0.0457,
江戸川 (Edogawa),2020-06-09,11:01～12:00,0.0484,0.0429,0.0455,
江戸川 (Edogawa),2020-06-09,10:01～11:00,0.0481,0.0422,0.0454,
江戸川 (Edogawa),2020-06-09,09:01～10:00,0.0485,0.0423,0.0455,
江戸川 (Edogawa),2020-06-09,08:01～09:00,0.0501,0.0425,0.0458,
江戸川 (Edogawa),2020-06-09,07:01～08:00,0.0494,0.0427,0.0457,
江戸川 (Edogawa),2020-06-09,06:01～07:00,0.0485,0.0428,0.0454,
江戸川 (Edogawa),2020-06-09,05:01～06:00,0.0485,0.0429,0.0454,
江戸川 (Edogawa),2020-06-09,04:01～05:00,0.0484,0.0412,0.0455,
江戸川 (Edogawa),2020-06-09,03:01～04:00,0.0482,0.0417,0.0455,
江戸川 (Edogawa),2020-06-09,02:01～03:00,0.0486,0.0421,0.0450,
江戸川 (Edogawa),2020-06-09,01:01～02:00,0.0488,0.0425,0.0452,
江戸川 (Edogawa),2020-06-09,00:01～01:00,0.0485,0.0421,0.0453,
江戸川 (Edogawa),2020-06-08,23:01～24:00,0.0492,0.0420,0.0451,
江戸川 (Edogawa),2020-06-08,22:01～23:00,0.0491,0.0423,0.0454,
江戸川 (Edogawa),2020-06-08,21:01～22:00,0.0490,0.0423,0.0450,
江戸川 (Edogawa),2020-06-08,20:01～21:00,0.0479,0.0427,0.0452,
江戸川 (Edogawa),2020-06-08,19:01～20:00,0.0479,0.0413,0.0451,
江戸川 (Edogawa),2020-06-08,18:01～19:00,0.0496,0.0421,0.0453,
江戸川 (Edogawa),2020-06-08,17:01～18:00,0.0487,0.0422,0.0452,
江戸川 (Edogawa),2020-06-08,16:01～17:00,0.0489,0.0419,0.0453,
江戸川 (Edogawa),2020-06-08,15:01～16:00,0.0477,0.0426,0.0449,
江戸川 (Edogawa),2020-06-08,14:01～15:00,0.0488,0.0414,0.0454,
江戸川 (Edogawa),2020-06-08,13:01～14:00,0.0483,0.0427,0.0454,
江戸川 (Edogawa),2020-06-08,12:01～13:00,0.0490,0.0417,0.0453,
江戸川 (Edogawa),2020-06-08,11:01～12:00,0.0486,0.0422,0.0451,
江戸川 (Edogawa),2020-06-08,10:01～11:00,0.0483,0.0424,0.0451,
江戸川 (Edogawa),2020-06-08,09:01～10:00,0.0491,0.0422,0.0453,
江戸川 (Edogawa),2020-06-08,08:01～09:00,0.0486,0.0420,0.0453,
江戸川 (Edogawa),2020-06-08,07:01～08:00,0.0481,0.0417,0.0450,
江戸川 (Edogawa),2020-06-08,06:01～07:00,0.0479,0.0419,0.0449,
江戸川 (Edogawa),2020-06-08,05:01～06:00,0.0490,0.0412,0.0453,
江戸川 (Edogawa),2020-06-08,04:01～05:00,0.0478,0.0421,0.0453,
江戸川 (Edogawa),2020-06-08,03:01～04:00,0.0482,0.0420,0.0451,
江戸川 (Edogawa),2020-06-08,02:01～03:00,0.0482,0.0429,0.0454,
江戸川 (Edogawa),2020-06-08,01:01～02:00,0.0483,0.0421,0.0449,
江戸川 (Edogawa),2020-06-08,00:01～01:00,0.0492,0.0414,0.0451,
